Weather History for Bilbao, Spain

Change the Weather History Date:

Tuesday, May 7, 2013

  Actual Average Record
Temperature  
Mean Temperature 67 °F -  
Max Temperature 77 °F 70 °F 86 °F (2008)
Min Temperature 57 °F 52 °F 42 °F (1997)
Cooling Degree Days 2    
Growing Degree Days 17 (Base 50)    
Moisture  
Dew Point 57 °F    
Average Humidity 75    
Maximum Humidity 94    
Minimum Humidity 53    
Precipitation  
Precipitation 0.00 in - - ()
Sea Level Pressure  
Sea Level Pressure 30.00 in    
Wind  
Wind Speed 3 mph ()    
Max Wind Speed 13 mph    
Max Gust Speed -    
Visibility 5.7 miles    
Events Rain    
Averages and records for this station are not official NWS values.
T = Trace of Precipitation, MM = Missing Value Source: Averaged Metar Reports

Daily Weather History Graph

Daily Weather History Graph

Search for Another Location

Airport:

Trip Planner

Search our weather history database for the weather conditions in past years. The results will help you decide how hot, cold, wet, or windy it might be!

Date:

Astronomy

May. 07, 2013 Rise Set
Actual Time 6:56 AM CEST 9:20 PM CEST
Civil Twilight 6:24 AM CEST 9:52 PM CEST
Nautical Twilight 5:45 AM CEST 10:32 PM CEST
Astronomical Twilight 5:01 AM CEST 11:16 PM CEST
Moon 5:27 AM CEST (5/7) 7:02 PM CEST (5/7)
Length of Visible Light 15h 27m
Length of Day
14h 23m
Waning Crescent, 7% of the Moon is Illuminated
May 7
Waning Crescent
May 10
New
May 18
First Quarter
May 25
Full
May 31
Last Quarter

Hourly Weather History & Observations

Time (CEST) Temp. Dew Point Humidity Pressure Visibility Wind Dir Wind Speed Gust Speed Precip Events Conditions
12:00 AM 59.0 °F 53.6 °F 82% 30.04 in - Variable 2.3 mph - N/A   Clear
5:00 AM 57.2 °F 53.6 °F 88% 29.98 in 5.6 mi East 3.5 mph - N/A   Partly Cloudy
5:30 AM 57.2 °F 55.4 °F 94% 29.98 in 6.2 mi Variable 2.3 mph - N/A   Partly Cloudy
6:00 AM 59.0 °F 53.6 °F 82% 29.98 in 6.2 mi Variable 3.5 mph - N/A   Partly Cloudy
6:30 AM 60.8 °F 53.6 °F 77% 29.98 in 6.2 mi Variable 1.2 mph - N/A   Partly Cloudy
7:00 AM 59.0 °F 53.6 °F 82% 30.01 in 6.2 mi Calm Calm - N/A   Partly Cloudy
7:30 AM 57.2 °F 53.6 °F 88% 30.01 in 6.2 mi Variable 1.2 mph - N/A   Partly Cloudy
8:00 AM 57.2 °F 55.4 °F 94% 30.04 in 5.6 mi WNW 3.5 mph - N/A   Partly Cloudy
8:30 AM 57.2 °F 53.6 °F 88% 30.04 in 5.0 mi West 4.6 mph - N/A   Partly Cloudy
9:00 AM 57.2 °F 55.4 °F 94% 30.04 in 5.0 mi WNW 4.6 mph - N/A   Mostly Cloudy
9:30 AM 57.2 °F 55.4 °F 94% 30.04 in 4.3 mi WNW 3.5 mph - N/A   Mostly Cloudy
10:00 AM 59.0 °F 57.2 °F 94% 30.04 in 4.3 mi Calm Calm - N/A   Mostly Cloudy
10:30 AM 60.8 °F 57.2 °F 88% 30.06 in 5.0 mi Calm Calm - N/A   Mostly Cloudy
11:00 AM 60.8 °F 57.2 °F 88% 30.06 in 5.0 mi Variable 2.3 mph - N/A Rain Light Rain
11:30 AM 60.8 °F 57.2 °F 88% 30.06 in 4.3 mi Variable 1.2 mph - N/A Rain Light Rain
12:00 PM 62.6 °F 57.2 °F 82% 30.06 in 4.3 mi NW 3.5 mph - N/A   Mostly Cloudy
12:30 PM 62.6 °F 57.2 °F 82% 30.06 in 5.0 mi NW 8.1 mph - N/A   Mostly Cloudy
1:00 PM 62.6 °F 57.2 °F 82% 30.06 in 5.6 mi Variable 2.3 mph - N/A   Scattered Clouds
1:30 PM 64.4 °F 59.0 °F 83% 30.06 in 6.2 mi Variable 1.2 mph - N/A   Scattered Clouds
2:00 PM 68.0 °F 60.8 °F 78% 30.06 in 6.2 mi Variable 1.2 mph - N/A   Scattered Clouds
2:30 PM 69.8 °F 60.8 °F 73% 30.04 in 6.2 mi Variable 1.2 mph - N/A   Scattered Clouds
3:00 PM 71.6 °F 60.8 °F 69% 30.04 in 6.2 mi East 4.6 mph - N/A   Scattered Clouds
3:30 PM 75.2 °F 59.0 °F 57% 30.01 in 6.2 mi SE 6.9 mph - N/A   Partly Cloudy
4:00 PM 77.0 °F 59.0 °F 54% 30.01 in 6.2 mi ESE 5.8 mph - N/A   Partly Cloudy
4:30 PM 75.2 °F 57.2 °F 53% 29.98 in 6.2 mi East 6.9 mph - N/A   Partly Cloudy
5:00 PM 75.2 °F 57.2 °F 53% 29.98 in 6.2 mi East 5.8 mph - N/A   Partly Cloudy
5:30 PM 77.0 °F 59.0 °F 54% 29.98 in - East 6.9 mph - N/A   Clear
6:00 PM 75.2 °F 59.0 °F 57% 29.95 in - East 9.2 mph - N/A   Clear
6:30 PM 75.2 °F 59.0 °F 57% 29.95 in - East 11.5 mph - N/A   Clear
7:00 PM 75.2 °F 59.0 °F 57% 29.95 in - East 12.7 mph - N/A   Clear
7:30 PM 73.4 °F 59.0 °F 61% 29.95 in 6.2 mi East 8.1 mph - N/A   Partly Cloudy
8:00 PM 71.6 °F 59.0 °F 64% 29.95 in 6.2 mi Variable 2.3 mph - N/A   Partly Cloudy
8:30 PM 68.0 °F 60.8 °F 78% 29.95 in 6.2 mi ESE 6.9 mph - N/A   Scattered Clouds
9:00 PM 68.0 °F 59.0 °F 73% 29.95 in 6.2 mi East 6.9 mph - N/A   Partly Cloudy
9:30 PM 68.0 °F 59.0 °F 73% 29.95 in 6.2 mi SE 3.5 mph - N/A   Partly Cloudy
10:00 PM 68.0 °F 57.2 °F 68% 29.95 in 6.2 mi Variable 2.3 mph - N/A   Partly Cloudy
10:30 PM 69.8 °F 55.4 °F 60% 29.95 in 6.2 mi Variable 2.3 mph - N/A Rain Light Rain
11:00 PM 68.0 °F 55.4 °F 64% 29.98 in 6.2 mi West 3.5 mph - N/A Rain Light Rain
11:30 PM 68.0 °F 55.4 °F 64% 29.98 in 6.2 mi Variable 2.3 mph - N/A   Partly Cloudy